WGS 10 (USA 291) (44071 NORAD) Tracking and Keplerian Element Data

This shows tracking and keplerian element data for the satellite.

Feedback or suggestion? Click here.




ElementValue
Catalog44071
NameWGS 10 (USA 291)
Epoch Orbit2162
Epoch Day34.69120485
Epoch Year2025
RAAN100.9474
Inclination0.0142
Eccentricity2.94E-05
Argument of Perigee248.699
Mean Anonmoly93.5532
Mean Motion1.0027082
Decay Rate5.1E-07
L11 44071U 19014A 25034.69120485 .00000051 00000+0 00000+0 0 9994
L22 44071 0.0142 100.9474 0000294 248.6990 93.5532 1.00270820 21621



Live tracking and technical data element details for WGS 10 (USA 291) (NORAD 44071). WGS 10 (USA 291) can be tracked NOW for your location showing map with azimuth and elevation plus other details from your city location.







IsCatalogInMostPopularTable: catalog: 44071, numindb: 846
Update: records affected: 1



GetName: 44071 WGS 10 (USA 291)

Hit Count: updated at: Wed, 30 Apr 2025 16:24:27 GMT